Flag for Germany Weather past 2 weeks in Idar-Oberstein, Rhineland-Palatinate, Germany

Now
55 °F

Clear.


Feels Like: 52 °F
Forecast: 52 / 66 °F
Wind: 15 mph from West

Location: Hahn

Current Time: Jul 29, 2015 at 12:03:34 AM

Latest Report: Jul 28, 2015 at 11:20 PM


Visibility: 10 mi

Pressure: 29.86 "Hg

Humidity: 63%

Dew point: 43 °F

Location of Idar-ObersteinLocation

Historic Weather in Idar-Oberstein — Graph

°F

Idar-Oberstein temperature yesterday

Maximum temperature yesterday: 63 °F (at 2:20 PM)
Minimum temperature yesterday: 54 °F (at 4:50 AM)
Average temperature yesterday: 58 °F

Past Weeks' High & Low Weather Summary

 TemperatureHumidityPressure
High88 °F (Jul 17, 2:50 PM)100% (Jul 14, 11:50 AM)30.15 "Hg (Jul 14, 11:50 AM)
Low46 °F (Jul 26, 4:20 AM)27% (Jul 17, 2:20 PM)29.62 "Hg (Jul 27, 4:50 AM)
Average66 °F70%29.96 "Hg
* Reported Jul 13 10:50 PM — Jul 28 10:20 PM, Idar-Oberstein, Weather by CustomWeather, © 2015

Note: Actual official high and low records may vary slightly from our data, if they occured in-between our weather recording intervals... More about our weather records

Advertising

Idar-Oberstein weather history for previous 24 hours

 ConditionsComfort  
Time TempWeatherWind HumidityBarometerVisibility
10:20 PM
Tue, Jul 28
57 °FPassing clouds.13 mph63%29.86 "HgN/A
9:50 PM57 °FPartly sunny.10 mph63%29.83 "HgN/A
9:20 PM57 °FScattered clouds.15 mph59%29.83 "HgN/A
8:50 PM57 °FPartly sunny.14 mph59%29.83 "HgN/A
8:20 PM59 °FPassing clouds.14 mph55%29.83 "HgN/A
7:50 PM59 °FPartly sunny.14 mph55%29.83 "HgN/A
7:20 PM59 °FSunny.12 mph51%29.83 "Hg10 mi
6:50 PM59 °FSunny.14 mph51%29.80 "Hg10 mi
6:20 PM61 °FPartly sunny.13 mph48%29.80 "HgN/A
5:50 PM61 °FPartly sunny.14 mph48%29.80 "HgN/A
5:20 PM61 °FPassing clouds.16 mph52%29.80 "HgN/A
4:53 PM61 °FPartly sunny.17 mph52%29.80 "HgN/A
4:20 PM61 °FBroken clouds.18 mph52%29.80 "HgN/A
3:50 PM61 °FBroken clouds.15 mph48%29.80 "HgN/A
3:20 PM61 °FPassing clouds.16 mph48%29.80 "HgN/A
2:50 PM61 °FPassing clouds.15 mph48%29.80 "HgN/A
2:20 PM63 °FPassing clouds.20 mph45%29.80 "HgN/A
1:50 PM61 °FScattered clouds.16 mph48%29.80 "HgN/A
1:20 PM61 °FScattered clouds.20 mph48%29.80 "HgN/A
12:50 PM61 °FScattered clouds.16 mph52%29.80 "HgN/A
12:20 PM59 °FScattered clouds.18 mph55%29.80 "HgN/A
11:50 AM57 °FScattered clouds.16 mph59%29.80 "HgN/A
11:20 AM59 °FScattered clouds.18 mph59%29.80 "HgN/A
10:50 AM57 °FScattered clouds.17 mph63%29.80 "HgN/A
10:20 AM55 °FScattered clouds.17 mph67%29.80 "HgN/A
9:50 AM55 °FScattered clouds.21 mph67%29.80 "HgN/A
9:20 AM55 °FPassing clouds.17 mph67%29.80 "HgN/A
8:50 AM54 °FPassing clouds.17 mph72%29.77 "HgN/A
8:20 AM54 °FSunny.16 mph72%29.77 "Hg10 mi
7:50 AM54 °FPassing clouds.17 mph77%29.77 "HgN/A
7:20 AM54 °FPassing clouds.17 mph77%29.77 "HgN/A
6:50 AM54 °FPassing clouds.16 mph77%29.77 "HgN/A
5:50 AM54 °FPassing clouds.12 mph77%29.74 "HgN/A
5:20 AM54 °FPassing clouds.16 mph77%29.74 "HgN/A
4:50 AM54 °FPassing clouds.13 mph82%29.74 "HgN/A
4:20 AM55 °FPassing clouds.14 mph77%29.74 "HgN/A
3:50 AM55 °FPassing clouds.16 mph88%29.74 "HgN/A
3:20 AM55 °FPassing clouds.12 mph94%29.74 "HgN/A
2:50 AM55 °FPassing clouds.10 mph94%29.74 "HgN/A
2:20 AM55 °FRain. Passing clouds.8 mph94%29.77 "HgN/A
1:50 AM57 °FRain. Passing clouds.12 mph82%29.77 "HgN/A
1:20 AM57 °FPassing clouds.12 mph82%29.74 "HgN/A
12:50 AM59 °FPassing clouds.14 mph72%29.74 "HgN/A
Weather by CustomWeather, © 2015

See weather overviewHow to use our weather pages